Location: Piolenc
(44.1794°N, 4.7641°E)
Time: 01:32:16
(UTC+00:00)

USA 238 - Pass Details

Date: 27 January 2021
Orbit: 996 x 1216 km, 63.4° (Epoch: 25 February)

Event Time Altitude Azimuth Distance (km) Brightness Sun altitude
Exits shadow 05:51:25 - 233° (SW) 3,593 6.1 -13.1°
Reaches altitude 10° 05:53:41 10° 238° (WSW) 2,793 5.5 -12.7°
Maximum altitude 06:00:05 53° 315° (NW) 1,263 3.8 -11.6°
Drops below altitude 10° 06:06:50 10° 31° (NNE) 2,935 6.2 -10.4°
Sets 06:09:40 0° 37° (NE) 3,929 6.9 -9.9°
